Flag for Brazil Weather past 2 weeks in Campinas, São Paulo, Brazil

Now
70 °F

Mostly cloudy.


Feels Like: 70 °F
Forecast: 68 / 80 °F
Wind: 3 mph from Southeast

Location: Campinas Aeroporto

Current Time: Mar 30, 2015 at 2:26:51 AM

Latest Report: Mar 30, 2015 at 2:00 AM


Visibility: N/A

Pressure: 30.01 "Hg

Humidity: 94%

Dew point: 68 °F

Location of CampinasLocation

Historic Weather in Campinas — Graph

°F

Campinas temperature yesterday

Maximum temperature yesterday: 81 °F (at 2:00 PM)
Minimum temperature yesterday: 70 °F (at 2:00 AM)
Average temperature yesterday: 73 °F

Past Weeks' High & Low Weather Summary

 TemperatureHumidityPressure
High88 °F (Mar 27, 4:00 PM)100% (Mar 15, 2:00 AM)30.18 "Hg (Mar 15, 2:00 AM)
Low39 °F (Mar 16, 6:00 PM)35% (Mar 27, 4:00 PM)29.89 "Hg (Mar 21, 4:00 PM)
Average72 °F79%30.05 "Hg
* Reported Mar 15 1:00 AM — Mar 30 1:00 AM, Campinas, Weather by CustomWeather, © 2015

Note: Actual official high and low records may vary slightly from our data, if they occured in-between our weather recording intervals... More about our weather records

Advertising

Campinas weather history for previous 24 hours

 ConditionsComfort  
Time TempWeatherWind HumidityBarometerVisibility
1:00 AM
Mon, Mar 30
72 °FLight rain. Mostly cloudy.5 mph88%30.04 "HgN/A
12:00 AM72 °FMostly cloudy.2 mph88%30.07 "HgN/A
11:00 PM
Sun, Mar 29
70 °FLight rain. Overcast.6 mph94%30.07 "HgN/A
10:00 PM72 °FClear.6 mph83%30.07 "Hg10 mi
9:00 PM72 °FClear.12 mph83%30.04 "Hg10 mi
8:00 PM73 °FClear.10 mph83%30.01 "Hg10 mi
7:00 PM75 °FClear.8 mph78%30.01 "Hg10 mi
6:00 PM77 °FPassing clouds.7 mph79%30.01 "HgN/A
5:00 PM79 °FPartly sunny.9 mph70%29.98 "HgN/A
4:00 PM81 °FPartly sunny.8 mph66%29.98 "HgN/A
3:00 PM81 °FScattered clouds.8 mph66%29.98 "HgN/A
2:00 PM81 °FScattered clouds.5 mph66%30.01 "HgN/A
1:00 PM79 °FScattered clouds.No wind74%30.04 "HgN/A
12:00 PM77 °FScattered clouds.No wind79%30.07 "Hg6 mi
11:00 AM72 °FFog.5 mph94%30.09 "Hg2 mi
10:00 AM70 °FRain. Broken clouds.9 mph94%30.12 "Hg1 mi
9:00 AM73 °FLight rain. Broken clouds.3 mph78%30.09 "Hg5 mi
8:00 AM72 °FClear.5 mph83%30.07 "Hg5 mi
7:00 AM70 °FClear.5 mph83%30.07 "Hg4 mi
6:00 AM70 °FSunny.7 mph83%30.04 "Hg10 mi
5:00 AM70 °FClear.7 mph83%30.01 "Hg10 mi
4:00 AM70 °FClear.8 mph83%30.01 "Hg10 mi
3:00 AM70 °FClear.8 mph83%30.01 "Hg10 mi
2:00 AM70 °FClear.12 mph83%30.04 "Hg10 mi
Weather by CustomWeather, © 2015

See weather overviewHow to use our weather pages